Погода в Новосергиевке

Россия / Оренбургская область     52°04′21″N   53°38′40″E
темп.,
°C
ветер,
м/с
пор.,
м/с
влажн.,
%
обл.,
%
осадки,
мм/ч
давл.,
гПа
погр.,
м
28 июля, ср
ср2823:00+21зсз224190 0.0 101523
02:00+18зсз224918 0.0 101418
05:00+16сз225938 0.0 101419
08:00+19ссз355575 0.0 1014252
11:00+24ссз57365 0.0 10141936
14:00+26ссз78275 0.0 10132677
17:00+26ссз67255 0.0 10132541
20:00+24с57270 0.0 1013668
29 июля, чт
чт2923:00+17св22382 0.0 101411
02:00+15всв11420 0.0 101511
05:00+13юв11450 0.0 101510
08:00+18ю2336100 0.0 1016170
11:00+24зюз442676 0.0 10151400
14:00+28з452198 0.0 10132427
17:00+29зюз4518100 0.0 10112706
20:00+27юз342395 0.0 101084
30 июля, пт
пт3023:00+22вюв3443100 0.0 101080
02:00+24ююз81627100 0.0 1008573
05:00+24зюз7143470 0.1 1008593
08:00+20юз4962100 1.7 1008277
11:00+26з5753100 1.8 1008901
14:00+31з81036100 0.0 10082697
17:00+29з583819 0.1 10082057
20:00+26зюз364938 0.2 1008138
31 июля, сб
сб3123:00+24сз115246 0.2 100912
02:00+23ююз115640 0.0 100911
05:00+21ююз1163100 0.0 101011
08:00+23юз2457100 0.0 1011169
11:00+24юз3454100 0.1 1011296
14:00+23ю2356100 0.1 1011158
17:00+24ююв2351100 0.1 1011191
20:00+26вюв115033 0.2 101138
1 августа, вс
вс123:00+21юв33654 0.6 101127
02:00+20вюв22753 0.8 101124
05:00+19юв227527 1.2 101013
08:00+23зсз116114 0.0 1011101
11:00+29з23425 0.0 1011825
14:00+33з453014 0.0 10102811
17:00+33зсз4429100 0.0 10092607
20:00+31св233524 0.0 100978